Hourly Weather Barniewice

Today, 21 September, Monday

Time Temperature Precipitation Wind Pressure Humidity
00:00 +13°C° 0 mm 2 mps 753 mmHg 72%
01:00 +12°C° 0 mm 2 mps 753 mmHg 73%
02:00 +12°C° 0 mm 2 mps 753 mmHg 72%
03:00 +12°C° 0 mm 2 mps 753 mmHg 72%
04:00 +10°C° 0 mm 2 mps 753 mmHg 72%
05:00 +12°C° 0 mm 2 mps 753 mmHg 70%
06:00 +12°C° 0 mm 2 mps 753 mmHg 68%
07:00 +13°C° 0 mm 2 mps 753 mmHg 66%
08:00 +15°C° 0 mm 2 mps 753 mmHg 57%
09:00 +17°C° 0 mm 2 mps 753 mmHg 49%
10:00 +19°C° 0 mm 2 mps 753 mmHg 41%
11:00 +20°C° 0 mm 2 mps 753 mmHg 37%
12:00 +21°C° 0 mm 2 mps 752 mmHg 34%
13:00 +23°C° 0 mm 2 mps 752 mmHg 30%
14:00 +23°C° 0 mm 2 mps 752 mmHg 34%
15:00 +23°C° 0 mm 2 mps 751 mmHg 38%
16:00 +21°C° 0 mm 2 mps 751 mmHg 42%
17:00 +19°C° 0 mm 2 mps 751 mmHg 48%
18:00 +18°C° 0 mm 2 mps 751 mmHg 55%
19:00 +16°C° 0 mm 2 mps 751 mmHg 61%
20:00 +15°C° 0 mm 2 mps 750 mmHg 63%
21:00 +15°C° 0 mm 2 mps 750 mmHg 65%
22:00 +15°C° 0 mm 2 mps 750 mmHg 67%
23:00 +14°C° 0 mm 2 mps 750 mmHg 69%

Tomorrow, 22 September, Tuesday

Time Temperature Precipitation Wind Pressure Humidity
00:00 +14°C° 0 mm 2 mps 750 mmHg 71%
01:00 +14°C° 0 mm 2 mps 750 mmHg 72%
02:00 +13°C° 0 mm 2 mps 749 mmHg 74%
03:00 +13°C° 0 mm 2 mps 749 mmHg 75%
04:00 +13°C° 0 mm 2 mps 749 mmHg 76%
05:00 +13°C° 0 mm 2 mps 749 mmHg 75%
06:00 +14°C° 0 mm 2 mps 749 mmHg 73%
07:00 +14°C° 0 mm 2 mps 749 mmHg 72%
08:00 +17°C° 0 mm 3 mps 749 mmHg 65%
09:00 +19°C° 0 mm 3 mps 749 mmHg 58%
10:00 +21°C° 0 mm 3 mps 749 mmHg 51%
11:00 +24°C° 0 mm 3 mps 748 mmHg 47%
12:00 +25°C° 0 mm 4 mps 748 mmHg 43%
13:00 +26°C° 0 mm 4 mps 748 mmHg 39%
14:00 +26°C° 0 mm 4 mps 747 mmHg 41%
15:00 +26°C° 0 mm 3 mps 747 mmHg 43%
16:00 +25°C° 0 mm 3 mps 746 mmHg 45%
17:00 +24°C° 0 mm 3 mps 746 mmHg 49%
18:00 +21°C° 0 mm 3 mps 746 mmHg 53%
19:00 +19°C° 0 mm 3 mps 745 mmHg 58%
20:00 +18°C° 0 mm 3 mps 745 mmHg 60%
21:00 +18°C° 0 mm 3 mps 745 mmHg 62%
22:00 +17°C° 0 mm 4 mps 744 mmHg 64%
23:00 +17°C° 0 mm 4 mps 744 mmHg 67%

Day after tomorrow, 23 September, Wednesday

Time Temperature Precipitation Wind Pressure Humidity
00:00 +15°C° 0 mm 4 mps 744 mmHg 69%
01:00 +15°C° 0 mm 4 mps 744 mmHg 71%
02:00 +16°C° 0 mm 3 mps 744 mmHg 73%
03:00 +14°C° 0 mm 3 mps 744 mmHg 74%
04:00 +14°C° 0 mm 3 mps 743 mmHg 76%
05:00 +16°C° 0 mm 3 mps 743 mmHg 75%
06:00 +16°C° 0 mm 3 mps 743 mmHg 74%
07:00 +15°C° 0 mm 4 mps 743 mmHg 72%
08:00 +19°C° 0 mm 4 mps 743 mmHg 66%
09:00 +21°C° 0 mm 4 mps 743 mmHg 59%
10:00 +23°C° 0 mm 4 mps 743 mmHg 53%
11:00 +25°C° 0 mm 3 mps 743 mmHg 49%
12:00 +26°C° 0 mm 3 mps 743 mmHg 46%
13:00 +27°C° 0 mm 3 mps 743 mmHg 42%
14:00 +26°C° 0 mm 3 mps 743 mmHg 45%
15:00 +26°C° 0 mm 2 mps 742 mmHg 47%
16:00 +25°C° 0 mm 2 mps 742 mmHg 50%
17:00 +24°C° 0 mm 2 mps 742 mmHg 56%
18:00 +21°C° 0 mm 2 mps 742 mmHg 62%
19:00 +20°C° 0 mm 1 mps 742 mmHg 67%
20:00 +19°C° 0 mm 1 mps 742 mmHg 68%
21:00 +19°C° 0 mm 1 mps 742 mmHg 69%
22:00 +19°C° 0 mm 1 mps 742 mmHg 70%
23:00 +19°C° 0 mm 1 mps 742 mmHg 72%

24 September, Thursday

Time Temperature Precipitation Wind Pressure Humidity
00:00 +19°C° 0 mm 1 mps 742 mmHg 73%
01:00 +17°C° 0 mm 2 mps 742 mmHg 75%
02:00 +17°C° 0 mm 2 mps 742 mmHg 78%
03:00 +17°C° 0 mm 2 mps 741 mmHg 80%
04:00 +16°C° 0 mm 2 mps 741 mmHg 83%
05:00 +17°C° 0 mm 2 mps 741 mmHg 82%
06:00 +17°C° 0 mm 3 mps 741 mmHg 80%
07:00 +17°C° 0 mm 3 mps 741 mmHg 79%
08:00 +19°C° 0 mm 3 mps 742 mmHg 71%
09:00 +21°C° 0 mm 4 mps 742 mmHg 63%
10:00 +23°C° 0 mm 4 mps 742 mmHg 55%
11:00 +25°C° 0 mm 5 mps 742 mmHg 50%
12:00 +25°C° 0 mm 5 mps 742 mmHg 46%
13:00 +26°C° 0 mm 5 mps 742 mmHg 42%
14:00 +25°C° 0 mm 4 mps 742 mmHg 45%
15:00 +25°C° 0 mm 4 mps 743 mmHg 49%
16:00 +25°C° 0 mm 3 mps 743 mmHg 53%
17:00 +22°C° 0.2 mm 3 mps 743 mmHg 64%
18:00 +19°C° 0.2 mm 3 mps 743 mmHg 74%
19:00 +17°C° 0.2 mm 4 mps 744 mmHg 84%
20:00 +17°C° 0.1 mm 3 mps 744 mmHg 86%
21:00 +16°C° 0.1 mm 2 mps 744 mmHg 87%
22:00 +15°C° 0.1 mm 2 mps 745 mmHg 89%
23:00 +15°C° 0 mm 2 mps 744 mmHg 89%

25 September, Friday

Time Temperature Precipitation Wind Pressure Humidity
00:00 +15°C° 0 mm 2 mps 744 mmHg 89%
01:00 +14°C° 0 mm 2 mps 744 mmHg 89%
02:00 +14°C° 0 mm 2 mps 744 mmHg 88%
03:00 +13°C° 0 mm 3 mps 743 mmHg 87%
04:00 +13°C° 0 mm 3 mps 743 mmHg 86%
05:00 +13°C° 0 mm 3 mps 742 mmHg 87%
06:00 +14°C° 0 mm 4 mps 742 mmHg 89%
07:00 +15°C° 0 mm 4 mps 741 mmHg 91%
08:00 +17°C° 0 mm 5 mps 741 mmHg 82%
09:00 +19°C° 0 mm 6 mps 740 mmHg 74%
10:00 +21°C° 0 mm 6 mps 740 mmHg 65%
11:00 +22°C° 0 mm 6 mps 739 mmHg 61%
12:00 +23°C° 0 mm 6 mps 739 mmHg 57%
13:00 +24°C° 0 mm 6 mps 738 mmHg 54%
14:00 +22°C° 1.1 mm 6 mps 737 mmHg 64%
15:00 +20°C° 1.1 mm 6 mps 737 mmHg 75%
16:00 +19°C° 1.1 mm 5 mps 736 mmHg 86%
17:00 +16°C° 1.4 mm 6 mps 736 mmHg 87%
18:00 +15°C° 1.4 mm 6 mps 736 mmHg 88%
19:00 +12°C° 1.4 mm 7 mps 736 mmHg 90%
20:00 +13°C° 1.8 mm 6 mps 736 mmHg 90%
21:00 +13°C° 1.8 mm 6 mps 737 mmHg 90%
22:00 +13°C° 1.8 mm 6 mps 737 mmHg 91%
23:00 +13°C° 1.2 mm 5 mps 737 mmHg 91%

26 September, Saturday

Time Temperature Precipitation Wind Pressure Humidity
00:00 +12°C° 1.2 mm 5 mps 738 mmHg 90%
01:00 +12°C° 1.2 mm 5 mps 738 mmHg 90%
02:00 +12°C° 0.1 mm 4 mps 738 mmHg 88%
03:00 +12°C° 0.1 mm 4 mps 738 mmHg 86%
04:00 +12°C° 0.1 mm 4 mps 738 mmHg 84%
05:00 +12°C° 0 mm 3 mps 739 mmHg 83%
06:00 +12°C° 0 mm 3 mps 739 mmHg 82%
07:00 +12°C° 0 mm 3 mps 739 mmHg 81%
08:00 +13°C° 0 mm 2 mps 740 mmHg 77%
09:00 +14°C° 0 mm 2 mps 740 mmHg 73%
10:00 +15°C° 0 mm 1 mps 740 mmHg 68%
11:00 +15°C° 0 mm 1 mps 740 mmHg 63%
12:00 +16°C° 0 mm 1 mps 741 mmHg 57%
13:00 +18°C° 0 mm 1 mps 741 mmHg 52%
14:00 +18°C° 0 mm 1 mps 741 mmHg 55%
15:00 +16°C° 0 mm 2 mps 741 mmHg 58%
16:00 +16°C° 0 mm 3 mps 741 mmHg 61%
17:00 +14°C° 0 mm 3 mps 741 mmHg 66%
18:00 +13°C° 0 mm 3 mps 740 mmHg 71%
19:00 +12°C° 0 mm 4 mps 740 mmHg 76%
20:00 +12°C° 0 mm 5 mps 740 mmHg 77%
21:00 +11°C° 0 mm 6 mps 739 mmHg 78%
22:00 +11°C° 0 mm 7 mps 739 mmHg 80%
23:00 +11°C° 0 mm 8 mps 738 mmHg 82%
Show more